Precipitable_Water
0.91 0.85 0.85 0.82 0.76 0.69 0.65 0.60 0.56 0.51 0.47 0.43 0.39 0.40 0.43 0.45 0.48 0.46 0.43 0.40 0.40 0.40 0.40 0.40 0.40 0.38 0.36 0.36 0.38 0.41 0.43 0.43 0.42 0.41 0.39 0.40 0.39 0.39 0.38 0.38 0.38 0.37
0.86 0.90 0.89 0.84 0.78 0.73 0.68 0.66 0.59 0.55 0.50 0.47 0.45 0.44 0.46 0.47 0.45 0.43 0.39 0.38 0.39 0.38 0.39 0.38 0.37 0.36 0.34 0.33 0.33 0.32 0.33 0.33 0.33 0.37 0.35 0.35 0.35 0.35 0.32 0.31 0.30 0.32
0.89 0.88 0.86 0.83 0.77 0.69 0.68 0.68 0.63 0.57 0.54 0.53 0.52 0.49 0.49 0.52 0.48 0.45 0.41 0.40 0.38 0.38 0.39 0.38 0.37 0.37 0.36 0.35 0.34 0.33 0.32 0.32 0.33 0.38 0.38 0.37 0.38 0.36 0.35 0.35 0.36 0.37
0.88 0.87 0.86 0.87 0.82 0.70 0.71 0.68 0.65 0.60 0.58 0.56 0.53 0.53 0.54 0.55 0.54 0.52 0.50 0.48 0.44 0.43 0.44 0.44 0.43 0.42 0.41 0.41 0.42 0.41 0.42 0.42 0.44 0.46 0.45 0.45 0.45 0.44 0.44 0.46 0.45 0.45
0.87 0.87 0.90 0.89 0.86 0.79 0.74 0.71 0.65 0.62 0.60 0.58 0.58 0.57 0.57 0.56 0.55 0.54 0.55 0.56 0.55 0.53 0.53 0.53 0.53 0.51 0.50 0.48 0.49 0.48 0.49 0.48 0.50 0.49 0.48 0.48 0.51 0.51 0.51 0.51 0.48 0.46
0.86 0.89 0.87 0.84 0.82 0.78 0.73 0.70 0.70 0.67 0.65 0.63 0.60 0.59 0.58 0.59 0.58 0.55 0.54 0.55 0.58 0.59 0.59 0.60 0.60 0.60 0.58 0.55 0.55 0.55 0.54 0.53 0.53 0.53 0.50 0.50 0.52 0.55 0.55 0.55 0.52 0.49
0.83 0.89 0.89 0.88 0.87 0.83 0.75 0.77 0.79 0.78 0.73 0.72 0.70 0.63 0.61 0.60 0.59 0.58 0.57 0.55 0.56 0.58 0.59 0.59 0.60 0.60 0.60 0.58 0.56 0.55 0.56 0.55 0.55 0.54 0.52 0.52 0.53 0.52 0.55 0.54 0.52 0.52
0.83 0.86 0.93 0.93 0.86 0.82 0.79 0.77 0.78 0.86 0.85 0.82 0.77 0.74 0.71 0.65 0.63 0.63 0.63 0.61 0.58 0.57 0.59 0.61 0.61 0.61 0.61 0.60 0.57 0.56 0.55 0.56 0.55 0.54 0.53 0.52 0.52 0.51 0.53 0.55 0.55 0.54
0.88 0.89 0.90 0.89 0.87 0.86 0.83 0.80 0.78 0.87 0.93 0.90 0.85 0.86 0.87 0.83 0.77 0.73 0.72 0.71 0.68 0.66 0.65 0.67 0.69 0.68 0.69 0.68 0.65 0.62 0.59 0.58 0.57 0.55 0.54 0.54 0.55 0.55 0.56 0.57 0.55 0.54
0.87 0.90 0.86 0.86 0.84 0.85 0.83 0.81 0.84 0.86 0.93 0.94 0.94 0.95 0.94 0.94 0.93 0.90 0.88 0.86 0.83 0.81 0.78 0.78 0.78 0.79 0.78 0.78 0.76 0.74 0.70 0.68 0.66 0.65 0.63 0.62 0.62 0.62 0.61 0.60 0.58 0.57
0.85 0.83 0.82 0.82 0.82 0.84 0.83 0.83 0.83 0.84 0.92 0.93 0.97 0.96 0.98 1.01 1.00 0.98 0.95 0.93 0.91 0.90 0.90 0.90 0.89 0.88 0.87 0.87 0.87 0.86 0.84 0.81 0.80 0.79 0.78 0.77 0.75 0.72 0.70 0.68 0.65 0.62
0.84 0.80 0.78 0.78 0.81 0.83 0.84 0.84 0.84 0.82 0.86 0.90 0.93 0.96 1.00 1.03 0.99 0.99 0.99 0.97 0.96 0.96 0.95 0.94 0.95 0.94 0.93 0.92 0.92 0.93 0.93 0.92 0.91 0.89 0.88 0.86 0.85 0.83 0.80 0.77 0.74 0.71
0.84 0.84 0.83 0.84 0.85 0.85 0.89 0.92 0.93 0.89 0.91 0.90 0.89 0.90 0.95 0.96 0.97 0.98 1.00 1.00 1.00 1.02 1.00 0.98 0.97 0.97 0.96 0.96 0.96 0.95 0.94 0.93 0.93 0.92 0.92 0.92 0.92 0.90 0.89 0.86 0.83 0.80
0.87 0.87 0.89 0.91 0.89 0.89 0.91 0.95 0.98 0.98 0.98 0.96 0.93 0.92 0.93 0.93 0.94 0.96 0.98 0.98 0.97 0.99 1.03 1.04 1.02 1.00 0.99 0.99 1.00 0.98 0.96 0.94 0.93 0.92 0.91 0.92 0.94 0.94 0.92 0.89 0.87 0.85
0.88 0.88 0.88 0.88 0.87 0.87 0.90 0.92 0.94 1.00 1.00 1.00 0.96 0.98 1.00 0.97 1.00 1.04 1.04 1.03 1.01 1.02 1.05 1.08 1.05 0.99 0.96 0.96 0.97 0.97 0.96 0.94 0.93 0.92 0.92 0.91 0.93 0.95 0.95 0.93 0.91 0.89
0.86 0.85 0.84 0.85 0.85 0.86 0.87 0.90 0.92 0.96 0.97 1.01 1.00 1.00 1.02 1.01 1.01 1.02 1.00 0.99 0.96 0.98 0.99 0.98 0.99 0.99 0.97 0.96 0.96 0.95 0.94 0.93 0.93 0.93 0.93 0.94 0.94 0.94 0.93 0.93 0.93 0.92
0.85 0.84 0.84 0.82 0.84 0.87 0.91 0.92 0.91 0.94 0.95 0.92 0.93 0.98 0.92 0.98 0.99 0.97 0.95 0.96 0.94 0.92 0.91 0.95 0.97 0.96 0.93 0.91 0.91 0.93 0.93 0.92 0.90 0.90 0.92 0.94 0.94 0.95 0.94 0.94 0.93 0.92
0.83 0.83 0.82 0.83 0.86 0.88 0.90 0.91 0.89 0.89 0.90 0.91 0.93 0.92 0.89 0.94 0.93 0.93 0.92 0.91 0.91 0.93 0.96 0.94 0.95 0.95 0.93 0.93 0.94 0.95 0.95 0.94 0.93 0.91 0.90 0.90 0.90 0.90 0.91 0.90 0.90 0.89
0.77 0.77 0.78 0.81 0.84 0.87 0.89 0.91 0.91 0.91 0.92 0.92 0.91 0.91 0.89 0.86 0.85 0.86 0.86 0.91 0.94 0.90 0.89 0.91 0.89 0.88 0.87 0.87 0.89 0.93 0.95 0.94 0.92 0.90 0.86 0.84 0.83 0.83 0.83 0.84 0.83 0.82
0.70 0.74 0.75 0.77 0.79 0.79 0.79 0.78 0.76 0.73 0.74 0.76 0.78 0.81 0.80 0.79 0.80 0.79 0.83 0.85 0.85 0.82 0.80 0.79 0.76 0.77 0.75 0.73 0.72 0.73 0.75 0.78 0.80 0.80 0.78 0.77 0.77 0.78 0.77 0.76 0.76 0.76
0.54 0.58 0.60 0.61 0.62 0.63 0.62 0.61 0.60 0.60 0.62 0.64 0.65 0.65 0.66 0.66 0.67 0.68 0.69 0.69 0.68 0.68 0.66 0.66 0.67 0.67 0.64 0.61 0.60 0.60 0.61 0.61 0.60 0.61 0.62 0.64 0.68 0.71 0.72 0.71 0.70 0.70
0.49 0.51 0.52 0.53 0.55 0.56 0.53 0.50 0.51 0.52 0.53 0.53 0.51 0.51 0.51 0.52 0.53 0.55 0.55 0.56 0.56 0.55 0.52 0.49 0.53 0.56 0.57 0.58 0.57 0.58 0.58 0.57 0.57 0.56 0.56 0.58 0.60 0.62 0.63 0.66 0.67 0.66
0.49 0.49 0.49 0.48 0.48 0.48 0.47 0.47 0.47 0.47 0.46 0.47 0.46 0.46 0.46 0.45 0.45 0.46 0.48 0.48 0.49 0.50 0.48 0.48 0.50 0.53 0.53 0.53 0.54 0.55 0.56 0.56 0.54 0.54 0.54 0.54 0.54 0.56 0.59 0.60 0.61 0.61
0.51 0.49 0.48 0.48 0.48 0.48 0.48 0.48 0.48 0.48 0.46 0.46 0.44 0.43 0.41 0.41 0.43 0.43 0.43 0.43 0.42 0.43 0.46 0.46 0.49 0.54 0.55 0.54 0.54 0.54 0.55 0.55 0.55 0.53 0.52 0.51 0.52 0.54 0.56 0.57 0.58 0.60
0.54 0.53 0.52 0.52 0.51 0.50 0.49 0.48 0.47 0.45 0.40 0.38 0.37 0.36 0.35 0.36 0.35 0.34 0.36 0.38 0.41 0.43 0.46 0.46 0.48 0.51 0.52 0.52 0.52 0.54 0.56 0.56 0.56 0.53 0.51 0.50 0.50 0.50 0.53 0.54 0.57 0.59
0.56 0.55 0.55 0.54 0.52 0.52 0.52 0.51 0.51 0.48 0.41 0.37 0.37 0.39 0.39 0.40 0.40 0.39 0.37 0.37 0.37 0.37 0.39 0.41 0.44 0.47 0.50 0.52 0.54 0.55 0.56 0.56 0.55 0.52 0.49 0.49 0.50 0.50 0.50 0.52 0.53 0.54
Wind_Speed
19 17 17 16 13 12 12 11 10 8 6 6 5 5 5 5 5 5 5 5 5 5 5 5 5 5 5 4 4 4 4 4 4 4 4 4 4 4 4 5 5 5
18 17 16 16 14 12 12 11 10 8 7 6 5 5 5 5 5 5 5 5 5 5 5 5 5 4 4 4 4 4 3 3 3 3 3 3 3 3 3 3 3 3
17 17 16 16 14 13 13 12 11 9 8 6 6 6 6 5 5 5 5 5 5 5 5 4 4 4 4 4 4 3 3 3 3 3 3 2 2 2 2 2 2 2
17 17 16 15 14 14 14 13 12 11 9 8 7 7 6 6 6 6 6 6 5 5 5 5 4 4 4 4 4 4 3 3 3 3 3 2 3 2 2 2 2 2
17 17 16 15 14 14 14 13 13 12 11 10 8 8 8 7 7 7 7 7 7 6 6 5 5 5 5 5 4 4 4 4 4 4 3 3 4 4 4 3 3 3
17 16 16 15 14 14 14 14 14 13 12 11 11 10 10 9 9 8 7 8 8 8 7 7 7 6 6 6 5 5 5 5 5 5 5 5 5 6 6 5 5 5
17 17 16 16 15 15 15 15 14 14 13 12 12 12 12 11 11 10 9 9 9 9 9 8 8 8 8 8 7 7 7 7 7 7 7 7 7 8 8 8 8 7
17 17 17 16 16 16 15 15 15 14 14 13 13 13 13 13 12 11 11 10 10 10 10 9 9 9 9 9 9 9 10 10 10 10 10 10 10 10 10 10 10 10
16 16 17 17 17 17 16 16 16 16 16 16 15 15 15 14 14 13 12 12 12 11 11 11 11 11 11 11 11 12 12 12 12 12 12 12 12 12 12 12 12 12
15 16 16 17 17 17 17 18 18 17 17 17 17 17 17 16 16 15 14 14 13 13 13 13 13 13 13 13 13 13 14 14 14 14 14 14 14 14 14 14 14 13
16 16 17 18 18 18 18 19 19 19 18 18 17 17 18 18 17 17 16 16 16 16 16 15 15 15 15 15 15 15 16 16 16 16 16 16 16 16 16 16 16 15
17 17 18 19 19 19 19 20 20 20 20 19 18 18 19 19 19 19 19 19 19 18 18 18 17 17 17 18 18 18 18 18 18 18 18 18 18 18 18 18 18 17
17 17 17 18 19 19 20 20 21 21 21 21 21 21 22 22 22 22 22 22 21 21 21 21 20 20 20 20 20 20 20 20 20 20 21 21 21 20 20 20 20 19
18 17 18 19 19 19 20 20 21 21 21 22 22 22 23 23 24 24 24 23 23 23 23 23 23 23 22 21 21 21 21 22 22 23 23 23 23 23 22 22 22 21
19 19 19 20 20 20 21 21 22 22 22 23 23 23 22 23 23 23 23 23 23 24 24 24 23 23 23 23 23 23 23 23 23 24 24 24 24 24 24 23 23 24
20 20 21 21 22 22 22 23 23 23 22 23 23 23 23 23 23 23 23 23 24 24 25 25 24 23 23 23 24 24 24 24 24 25 25 25 26 26 26 26 26 26
21 22 22 22 22 23 23 23 24 23 24 24 25 24 23 23 24 25 24 24 24 24 25 25 24 23 23 24 24 25 25 25 25 25 26 26 26 27 28 29 29 29
22 22 22 23 23 23 23 24 24 24 24 25 25 25 23 22 22 23 23 23 23 23 24 23 23 23 23 23 24 25 25 26 26 26 26 26 27 28 28 29 30 30
23 23 23 23 23 23 23 23 23 23 23 23 23 23 22 22 21 22 22 22 22 23 23 22 22 22 22 23 24 24 25 25 26 26 27 27 28 29 29 30 30 31
23 24 23 23 23 23 22 22 22 22 22 22 22 22 22 22 21 22 22 22 22 23 23 23 23 23 23 24 24 25 25 26 26 27 28 28 29 29 30 30 31 32
24 24 24 24 23 23 23 22 22 22 22 22 22 21 21 21 21 22 22 22 23 23 23 24 24 24 25 25 25 25 26 26 26 27 28 28 29 29 29 30 30 31
25 25 25 25 24 23 23 22 22 22 22 22 22 22 22 22 22 22 23 23 24 24 25 25 25 25 26 26 26 26 26 26 27 27 27 28 28 28 29 29 29 30
26 26 25 25 24 23 23 23 23 23 23 24 23 23 23 24 24 24 24 25 25 25 26 26 26 27 27 27 27 27 26 27 27 27 27 27 27 28 28 28 28 29
26 26 25 25 24 24 24 24 24 25 25 25 24 24 24 25 25 25 26 26 26 26 27 27 27 28 28 28 28 27 27 27 27 27 26 26 26 27 27 27 27 28
27 27 26 26 26 25 25 25 25 25 25 25 25 25 25 25 25 26 26 26 27 27 27 27 28 28 29 29 29 28 28 28 28 27 27 27 26 26 27 27 28 28
27 28 28 28 28 27 27 26 26 26 26 26 26 26 26 26 26 26 26 27 27 27 28 28 28 29 29 30 29 29 29 29 29 28 28 28 27 27 28 28 28 29
Wind_Direction
250 252 249 246 251 254 253 253 253 254 258 259 255 245 236 233 231 227 223 221 218 217 216 214 216 218 219 220 222 225 226 224 224 227 229 228 229 232 236 241 244 246
246 247 245 243 246 246 244 243 244 248 252 254 252 243 234 230 228 224 216 211 208 206 204 203 203 203 204 204 204 206 208 207 207 210 210 211 216 221 225 232 239 244
243 243 241 239 241 240 240 240 241 245 246 247 247 241 235 233 233 230 220 209 204 200 195 191 190 190 191 192 194 195 195 192 193 195 196 199 205 211 216 228 244 249
241 239 237 238 240 239 239 237 236 239 241 241 244 239 237 238 239 238 232 221 211 205 200 195 194 193 193 195 197 200 200 199 200 201 200 205 213 218 224 236 249 255
235 235 235 237 239 238 238 234 233 235 237 239 240 238 239 241 241 242 240 234 227 221 216 213 212 211 211 212 213 214 215 216 220 223 224 228 234 239 242 247 254 259
232 234 235 237 238 236 237 235 233 233 235 238 240 239 241 241 241 242 241 240 237 234 232 232 232 232 233 235 236 235 234 233 236 240 243 246 250 254 254 256 259 263
234 234 234 237 238 236 236 235 234 233 233 236 238 239 240 239 240 241 241 241 240 240 241 243 243 244 246 248 248 248 249 249 249 250 252 254 257 259 260 262 263 266
236 235 236 237 236 235 235 234 234 234 234 236 238 238 240 240 241 241 241 241 241 241 244 246 247 249 251 253 253 253 255 256 257 257 258 259 260 261 263 265 267 268
238 237 237 237 236 235 235 234 237 239 239 240 241 240 241 242 243 243 243 244 244 244 246 248 249 252 254 256 257 257 258 258 259 259 260 261 262 263 264 266 268 269
243 241 238 237 237 236 234 236 240 243 243 245 245 243 242 242 242 244 245 246 247 249 250 250 252 254 256 258 259 260 260 260 261 261 261 262 263 264 266 267 268 269
246 244 242 240 239 238 237 238 241 243 245 246 245 242 241 241 242 244 245 246 249 251 251 252 253 255 257 259 259 260 260 261 262 262 263 263 264 266 267 267 267 268
247 246 245 243 242 242 242 242 243 245 245 245 243 243 243 243 244 246 248 249 251 252 252 253 255 257 260 260 260 259 259 260 261 261 263 264 265 266 266 266 266 266
246 246 245 244 245 246 246 245 246 246 245 244 246 247 246 245 246 248 249 251 252 253 253 256 258 259 262 263 261 260 259 259 260 262 264 266 266 266 265 265 264 264
247 247 245 245 247 248 248 247 248 248 247 247 249 250 249 249 249 250 252 252 251 252 255 258 259 261 262 262 262 261 260 261 261 263 264 266 266 265 265 264 263 263
251 250 249 248 249 250 250 251 252 252 250 250 252 251 250 251 251 251 254 254 253 253 256 259 261 261 261 261 261 261 262 263 264 263 264 264 264 264 263 263 263 263
253 253 254 254 253 252 253 254 255 253 251 253 255 254 252 253 253 254 256 257 256 255 257 260 263 263 262 261 261 261 263 264 265 265 265 264 263 262 262 263 263 264
256 256 257 257 255 254 255 256 256 255 255 256 259 258 256 255 255 255 257 257 257 258 258 261 264 265 266 264 263 263 263 264 265 266 266 266 265 263 263 263 264 264
258 258 258 257 257 256 256 257 257 257 257 258 258 259 258 255 254 255 257 258 258 258 259 261 264 266 266 266 265 266 265 265 266 266 266 267 267 266 265 265 264 264
259 258 257 257 257 257 257 257 257 257 257 257 258 258 257 255 254 255 256 257 257 258 260 263 266 267 267 266 267 267 267 267 267 267 266 267 267 267 267 266 265 264
259 257 256 257 257 257 257 257 257 256 255 255 256 256 256 255 256 256 257 257 259 261 263 265 267 268 268 268 269 268 268 268 268 268 268 268 268 268 267 266 265 265
257 256 256 256 257 256 256 256 256 255 255 255 255 255 255 256 256 257 259 260 262 263 265 267 268 269 270 270 270 269 269 270 271 271 270 270 270 269 268 267 266 266
256 255 255 256 255 254 254 254 255 255 255 256 256 256 256 257 258 259 261 263 264 265 267 268 269 270 271 271 271 271 271 272 273 273 272 272 271 271 270 269 268 267
255 254 253 253 253 252 253 253 254 255 256 256 255 256 257 258 260 262 264 265 267 267 268 269 271 271 272 272 271 271 271 272 273 273 273 272 271 271 270 269 268 267
252 252 250 250 250 251 252 253 254 255 255 255 254 255 257 258 260 262 264 266 268 269 269 270 271 272 272 272 272 271 272 272 273 274 273 273 272 272 271 270 269 269
253 252 250 249 251 252 252 253 254 255 255 255 255 256 258 260 263 264 266 267 268 269 270 271 272 273 273 273 272 271 272 273 273 274 274 274 274 274 273 272 272 271
255 254 253 252 252 254 254 255 255 255 256 257 258 259 261 263 265 266 267 268 269 270 271 271 272 272 273 273 272 272 272 273 273 273 273 273 273 273 273 273 272 271